Location: Alafon
(8.4500°N, 4.2333°E)
Time: 08:01:14
(UTC+00:00)

A-11 Canister half - Pass Details

Date: 08 August 2021
Orbit: 1515 x 1685 km, 47.2° (Epoch: 21 September)

Event Time Altitude Azimuth Distance (km) Brightness Sun altitude
Rises 09:52:20 0° 182° (S) 4,649 11.4 60.6°
Reaches altitude 10° 09:57:30 10° 158° (SSE) 3,671 11.2 61.8°
Maximum altitude 10:01:48 14° 129° (SE) 3,373 11.2 62.8°
Drops below altitude 10° 10:06:06 10° 101° (E) 3,699 11.5 63.8°
Sets 10:11:16 0° 77° (ENE) 4,711 11.9 65.0°
